Tracking 35331 objects as of 14-Sep-2026
HD Live streaming from Space Station
objects crossing your sky now

PEGASUS DEB


PEGASUS DEB is no longer on orbit


NORAD ID: 24263
Int'l Code: 1994-029MN
Launch date: May 19, 1994
Source: United States (US)
Launch site: AIR FORCE WESTERN TEST RANGE (AFWTR)
Decay date: 2004-01-11

Note: This is SATELLITE DEBRIS
Your satellite tracking list
Your tracking list is empty




NASA's NSSDC Master Catalog

Two Line Element Set (TLE):
1 24263U 94029MN  04010.74023425 +.11694131 -11033-5 +14352-2 0  9990
2 24263 082.0120 289.5155 0009410 132.2700 231.0986 16.36195418413445
Source of the keplerian elements: AFSPC